Regional Weather Roundup
Issued by NWS Cleveland, OH

Home | Current Version | Previous Version | Graphics & Text | Print | Product List | Glossary On
Versions: 1 2 3 4 5 6 7 8 9 10 11 12 13 14 15 16 17 18 19 20 21 22 23 24 25 26 27 28 29 30 31 32 33 34 35 36 37 38 39 40 41 42 43 44 45 46 47 48 49 50
354
ASUS41 KCLE 230200
RWRCLE
OHIO REGIONAL WEATHER ROUNDUP
NATIONAL WEATHER SERVICE WILMINGTON, OH
900 PM EST SUN JAN 22 2017

NOTE: "FAIR" INDICATES FEW OR NO CLOUDS BELOW 12,000 FEET WITH NO
SIGNIFICANT WEATHER AND/OR OBSTRUCTIONS TO VISIBILITY.

OHZ001>008-015>018-024>027-034-035-043-044-230300-
   NORTHWEST OHIO

CITY           SKY/WX    TMP DP  RH WIND       PRES   REMARKS
DEFIANCE       FOG       47  47 100 NE8       29.61R VSB 1/2
FINDLAY        CLOUDY    46  43  89 NE12      29.57R FOG
TOLEDO EXPRESS CLOUDY    43  43 100 E12       29.61R FOG
TOLEDO EXEC    FOG       38  38 100 NE10      29.63R VSB 1/2
LIMA           FAIR      48  47  96 N9        29.56R
$$

OHZ009>014-019>023-028>033-038-089-230300-
   NORTHEAST OHIO

CITY           SKY/WX    TMP DP  RH WIND       PRES   REMARKS
CLE-HOPKINS    CLOUDY    45  40  82 N6        29.60S
CLE-LAKEFRONT  CLOUDY    38  37  97 NE15      29.58S FOG
CUY CO. ARPT   NOT AVBL
LORAIN-ELYRIA  CLOUDY    45  41  86 NE7       29.57F
ASHTABULA      CLOUDY    41  41 100 VRB5      29.61S
AKRON-CANTON   CLOUDY    54  48  80 NE10      29.55F
WOOSTER        NOT AVBL
MANSFIELD      CLOUDY    53  49  86 NE7       29.55S
YOUNGSTOWN     LGT RAIN  53  48  83 NE7       29.59S
$$

OHZ042-051>053-060>062-070>072-077>081-230300-
  SOUTHWEST OHIO

CITY           SKY/WX    TMP DP  RH WIND       PRES   REMARKS
CINC-COVINGTON FAIR      56  49  77 NE17      29.43F
CINC-LUNKEN    LGT RAIN  57  50  77 NE9       29.44F
HAMILTON       CLOUDY    56  50  80 NE12      29.47F
DAYTON         NOT AVBL
WRIGHT-PAT AFB FAIR      56  49  77 NE12      29.49S
DAYTON GENERAL LGT RAIN  54  50  86 NE10      29.47F
WILMINGTON     MOCLDY    54  49  83 NE15      29.45F
$$

OHZ036-037-039>041-045>050-054>059-063>069-073>076-082>088-230300-
  CENTRAL AND SOUTHEAST OHIO

CITY           SKY/WX    TMP DP  RH WIND       PRES   REMARKS
COLUMBUS       CLOUDY    58  47  66 NE13      29.48F
OSU AIRPORT    LGT RAIN  56  50  80 NE9       29.49S
BOLTON FIELD   NOT AVBL
RICKENBACK AFB NOT AVBL
NEWARK         FAIR      58  47  66 NE6       29.48F
MARION         CLOUDY    51  48  89 N10       29.54S
LANCASTER      FAIR      57  47  69 NE9       29.48F
ZANESVILLE     FAIR      58  47  66 NE8       29.49F
NEW PHILLY     CLOUDY    57  49  74 NE9       29.52F
$$




USA.gov is the U.S. government's official web portal to all federal, state and local government web resources and services.